Overview Statistics Trail Chart Weather Telemetry Raw packets
 

This is the latest recevied weather packets stored in our database for station/object ALANSN-2. If no packets are shown the sender has not sent any weather packets the latest 10 day(s).

<< 93 94 95 96 97 98 99 >>
Time Temp. Humidity Pressure Rain* Wind** Luminosity Snow
1787865420 22.78° C 60% 1027.3 hPa 0 mm - 390 W/m² -
1787865120 22.78° C 62% 1027.2 hPa 0 mm - 410 W/m² -
1787864820 22.78° C 62% 1027.4 hPa 0 mm - 422 W/m² -
1787864520 22.78° C 62% 1027.3 hPa 0 mm - 410 W/m² -
1787864221 22.78° C 63% 1027.2 hPa 0 mm - 424 W/m² -
1787863920 22.22° C 63% 1027.2 hPa 0 mm - 431 W/m² -
1787863620 22.78° C 63% 1027 hPa 0 mm - 439 W/m² -
1787863320 22.78° C 61% 1027.3 hPa 0 mm - 483 W/m² -
1787863020 22.22° C 63% 1027 hPa 0 mm - 502 W/m² -
1787862717 22.22° C 62% 1027.1 hPa 0 mm - 501 W/m² -
1787862418 21.67° C 64% 1027.3 hPa 0 mm - 501 W/m² -
1787862117 22.22° C 63% 1027.1 hPa 0 mm - 515 W/m² -
1787861818 22.22° C 61% 1027.1 hPa 0 mm - 523 W/m² -
1787861520 22.78° C 65% 1027.2 hPa 0 mm - 501 W/m² -
1787861220 22.78° C 61% 1027 hPa 0 mm - 535 W/m² -
1787860918 22.78° C 60% 1027 hPa 0 mm - 522 W/m² -
1787860625 22.78° C 65% 1027 hPa 0 mm - 515 W/m² -
1787860317 22.78° C 67% 1027.2 hPa 0 mm - 532 W/m² -
1787860019 22.22° C 66% 1027.1 hPa 0 mm - 536 W/m² -
1787859721 21.67° C 68% 1026.8 hPa 0 mm - 553 W/m² -
1787859419 21.67° C 69% 1026.9 hPa 0 mm - 561 W/m² -
1787859120 21.67° C 69% 1026.9 hPa 0 mm - 561 W/m² -
1787858820 22.22° C 68% 1026.9 hPa 0 mm - 574 W/m² -
1787858518 21.11° C 70% 1026.8 hPa 0 mm - 586 W/m² -
1787858220 21.11° C 70% 1026.8 hPa 0 mm - 586 W/m² -

* Rain latest hour (hover to see other rain measurements)
** Current wind speed in m/s (hover to see current wind gust speed)